This is the latest recevied weather packets stored in our database for station/object SV6DBG-10. If no packets are shown the sender has not sent any weather packets the latest 10 day(s).
| Time | Temp. | Humidity | Pressure | Rain* | Wind** | Luminosity | Snow |
|---|---|---|---|---|---|---|---|
| 1777889667 | 24.44° C | 14% | 1021.7 hPa | - | - | - | - |
| 1777888767 | 23.89° C | 17% | 1021.8 hPa | - | - | - | - |
| 1777887866 | 23.33° C | 18% | 1021.9 hPa | - | - | - | - |
| 1777886966 | 22.78° C | 22% | 1022.2 hPa | - | - | - | - |
| 1777886066 | 23.33° C | 19% | 1022.3 hPa | - | - | - | - |
| 1777885166 | 23.33° C | 19% | 1022.4 hPa | - | - | - | - |
| 1777884266 | 22.78° C | 20% | 1022.6 hPa | - | - | - | - |
| 1777883366 | 22.22° C | 24% | 1022.7 hPa | - | - | - | - |
| 1777882465 | 22.22° C | 24% | 1022.6 hPa | - | - | - | - |
| 1777881565 | 24.44° C | 22% | 1022.8 hPa | - | - | - | - |
| 1777880665 | 23.33° C | 25% | 1022.8 hPa | - | - | - | - |
| 1777879765 | 21.11° C | 29% | 1023 hPa | - | - | - | - |
| 1777878865 | 23.89° C | 25% | 1022.8 hPa | - | - | - | - |
| 1777877965 | 21.67° C | 29% | 1023 hPa | - | - | - | - |
| 1777877064 | 20.56° C | 32% | 1023.1 hPa | - | - | - | - |
| 1777876164 | 18.89° C | 34% | 1023.2 hPa | - | - | - | - |
| 1777875264 | 15.56° C | 40% | 1023.3 hPa | - | - | - | - |
| 1777874364 | 17.22° C | 38% | 1023.3 hPa | - | - | - | - |
| 1777873464 | 19.44° C | 34% | 1023.2 hPa | - | - | - | - |
| 1777872564 | 15.56° C | 42% | 1023.2 hPa | - | - | - | - |
| 1777871658 | 11.11° C | 57% | 1023.2 hPa | - | - | - | - |
| 1777870758 | 9.44° C | 61% | 1023.2 hPa | - | - | - | - |
| 1777869858 | 10° C | 60% | 1023.1 hPa | - | - | - | - |
| 1777868957 | 13.89° C | 48% | 1022.9 hPa | - | - | - | - |
| 1777868057 | 7.78° C | 71% | 1022.9 hPa | - | - | - | - |
* Rain since midnight (hover to see other rain measurements)
** Current wind speed in m/s (hover to see current wind gust speed)